Regional Weather Roundup
Issued by NWS

Home | Current Version | Previous Version | Graphics & Text | Print | Product List | Glossary On
Versions: 1 2 3 4 5 6 7 8 9 10 11 12 13 14 15 16 17 18 19 20 21 22 23 24 25 26 27 28 29 30 31 32 33 34 35 36 37 38 39 40 41 42 43 44 45 46 47 48 49 50
721
ASUS45 KBOU 190310
RWRCO

WEATHER ROUNDUP FOR COLORADO
NATIONAL WEATHER SERVICE DENVER/BOULDER CO
800 PM MST SAT NOV 18 2017

NOTE: "FAIR" INDICATES FEW OR NO CLOUDS BELOW 12000 FEET WITH NO
SIGNIFICANT WEATHER AND/OR OBSTRUCTIONS TO VISIBILITY.

COZ001>005-013-030-031-190400-
...NORTHWEST COLORADO...

CITY           SKY/WX    TMP DP  RH WIND       PRES   REMARKS
CRAIG          FAIR      15  10  80 CALM      30.39R
HAYDEN         FAIR      21  13  71 E8        30.40S WCI  11
MEEKER         FAIR      20  15  81 MISG      30.38S
RABBIT EARS PA FAIR      12   9  85 W10G18    30.30F WCI  -1
STEAMBOAT SPGS FAIR      18  12  77 CALM      30.38S
WALDEN         FAIR      14   3  62 SE7       30.33S WCI   4
$$

COZ006>008-011-190400-
...WEST CENTRAL VALLEYS...

CITY           SKY/WX    TMP DP  RH WIND       PRES   REMARKS
GRAND JUNCTION FAIR      29  16  58 E3        30.39R
MONTROSE       FAIR      27  22  81 SE8       30.41R WCI  19
EAGLE          FAIR      23  17  78 SE3       30.42R
RIFLE          FAIR      27  21  78 SE3       30.41S
DELTA          FAIR      32  19  58 CALM      30.40S
NUCLA          FAIR      28  12  50 E9        30.40S WCI  20
$$

COZ017>023-064>068-190400-
...SOUTHWEST COLORADO...

CITY           SKY/WX    TMP DP  RH WIND       PRES   REMARKS
DURANGO        FAIR      25  15  66 CALM      30.36R
CORTEZ         FAIR      23  12  62 E7        30.36R WCI  15
PAGOSA SPRINGS FAIR      26  14  59 CALM      30.37S
TELLURIDE      FAIR      26  13  59 SE8       30.38F WCI  17
WOLF CREEK PAS NOT AVBL
$$

COZ009-010-012-014-032>034-037-058>063-190400-
...CENTRAL COLORADO...

CITY           SKY/WX    TMP DP  RH WIND       PRES   REMARKS
ASPEN          FAIR      18  10  71 SW8       30.37S WCI   8
BUENA VISTA    FAIR      29   7  39 NW12      30.31R WCI  19
COPPER MTN     FAIR      19  -4  35 MISG      30.33F
BERTHOUD PASS  FAIR      10  -2  56 NW38      30.26F WCI -14
COTTONWOOD PAS FAIR      32   5  32 CALM      30.31S
GUNNISON       FAIR      17  13  84 N3        30.41R
KREMMLING      FAIR      23  14  68 CALM      30.40R
LEADVILLE      FAIR       7   3  84 NE8       30.34R WCI  -6
MONARCH PASS   FAIR      16   3  57 W28       30.43S WCI  -4
SALIDA         FAIR      34   8  33 W6        30.38R WCI  28
SUNLIGHT       FAIR      18   0  45 S8        30.40S WCI   7
WILKERSON PASS FAIR      19  -4  35 NW8       30.33R WCI   9
$$

COZ069>075-190400-
...SAN LUIS VALLEY/SANGRE DE CRISTO MOUNTAINS...

CITY           SKY/WX    TMP DP  RH WIND       PRES   REMARKS
ALAMOSA        FAIR      24  11  57 W5        30.34R WCI  18
DEL NORTE      FAIR      21  10  62 W9        30.36S WCI  11
LA VETA PASS   FAIR      23   3  42 SW22G31     N/A  WCI   8
SAGUACHE       FAIR      25   5  42 NW13      30.36S WCI  13
$$

COZ035-036-038>040-190400-
...NORTHERN COLORADO FRONT RANGE...

CITY           SKY/WX    TMP DP  RH WIND       PRES   REMARKS
DENVER INTL AP FAIR      31  16  54 SE5       30.21R WCI  26
DMNS CITY PARK   N/A     38  20  48 SE13      30.21S
AURORA         PTCLDY    30  19  62 S9        30.21S WCI  22
FRONT RANGE AP PTCLDY    36  18  48 SW6       30.22R
ERIE MUNI ARPT FAIR      33  19  54 CALM      30.27R
BOULDER MUN AP FAIR      36  18  48 S3        30.21S
CENTENNIAL     FAIR      32  22  66 SE7       30.22R WCI  26
BROOMFIELD     CLEAR     37  10  32 NW9       30.21S
FORT COLLINS   FAIR      34  19  54 S3        30.23R
LONGMONT       FAIR      32  21  63 NW8       30.23S WCI  25
$$

COZ041-046-047-076>085-087-088-190400-
...PIKES PEAK/PALMER DIVIDE AND SOUTHERN FOOTHILLS...

CITY           SKY/WX    TMP DP  RH WIND       PRES   REMARKS
COLO. SPRINGS  FAIR      31  17  56 CALM      30.26S
A. F. ACADEMY  FAIR      26  16  67 N5        30.24F WCI  20
SCHRIEVER AFB  FAIR      28  15  59 W5        30.26S WCI  22
CHEYENNE MTN   FAIR      31  15  51 CALM      30.18F
ELLICOTT       NOT AVBL
FALCON         FAIR      26  16  64 NW3       30.26R
FORT CARSON    FAIR      33  17  52 W3        30.24S
LIMON          FAIR      18  13  80 CALM      30.25S
MONUMENT HILL  FAIR      27  16  63 S9        30.25R WCI  17
CANON CITY     CLEAR     32  21  64 NW5       30.25S WCI  27
WALSENBURG     FAIR      37  14  38 SW5       30.25F
TRINIDAD       FAIR      26  21  81 W5        30.26F WCI  20
$$

COZ042>045-048>051-090-091-190400-
...NORTHEAST COLORADO...

CITY           SKY/WX    TMP DP  RH WIND       PRES   REMARKS
GREELEY ARPT   FAIR      29  18  63 NE3       30.23R
AKRON          FAIR      33  13  43 SE6       30.24R WCI  28
BURLINGTON     FAIR      21  12  68 W8        30.27R WCI  11
WRAY           NOT AVBL
YUMA           FAIR      25  18  74 W7        30.26R WCI  17
STERLING       FAIR      27  18  69 CALM      30.24R
HOLYOKE        FAIR      28  18  64 W8        30.25S WCI  20
FORT MORGAN    FAIR      28  11  50 E5        30.24S WCI  22
$$

COZ086-089-092>099-190400-
...SOUTHEAST COLORADO...

CITY           SKY/WX    TMP DP  RH WIND       PRES   REMARKS
PUEBLO         FAIR      33  21  61 E5        30.24F WCI  29
LA JUNTA       FAIR      36  18  48 S6        30.27R
LAMAR          FAIR      23   9  55 MISG      30.26R
SPRINGFIELD      N/A     25  16  68 SW6       30.28S WCI  18
$$




USA.gov is the U.S. government's official web portal to all federal, state and local government web resources and services.